This is the latest recevied weather packets stored in our database for station/object CA3VLN-10. If no packets are shown the sender has not sent any weather packets the latest 10 day(s).
| Time | Temp. | Humidity | Pressure | Rain* | Wind** | Luminosity | Snow |
|---|---|---|---|---|---|---|---|
| 1777997392 | 25.56° C | 26% | 1001.8 hPa | - | - | - | - |
| 1777996492 | 25° C | 27% | 1002 hPa | - | - | - | - |
| 1777995592 | 25° C | 27% | 1002.1 hPa | - | - | - | - |
| 1777994692 | 25° C | 27% | 1002.3 hPa | - | - | - | - |
| 1777993792 | 24.44° C | 28% | 1002.6 hPa | - | - | - | - |
| 1777992892 | 24.44° C | 28% | 1002.8 hPa | - | - | - | - |
| 1777991992 | 23.89° C | 29% | 1002.8 hPa | - | - | - | - |
| 1777991091 | 23.33° C | 30% | 1003 hPa | - | - | - | - |
| 1777989291 | 21.67° C | 34% | 1003.2 hPa | - | - | - | - |
| 1777988391 | 20.56° C | 35% | 1003.5 hPa | - | - | - | - |
| 1777987491 | 20° C | 36% | 1003.7 hPa | - | - | - | - |
| 1777986591 | 19.44° C | 37% | 1003.8 hPa | - | - | - | - |
| 1777985691 | 18.89° C | 38% | 1003.9 hPa | - | - | - | - |
| 1777984791 | 18.33° C | 38% | 1004 hPa | - | - | - | - |
| 1777983891 | 17.78° C | 39% | 1004.4 hPa | - | - | - | - |
| 1777982991 | 17.78° C | 39% | 1004.4 hPa | - | - | - | - |
| 1777982090 | 17.22° C | 40% | 1004.4 hPa | - | - | - | - |
| 1777981190 | 17.22° C | 40% | 1004.6 hPa | - | - | - | - |
| 1777980290 | 17.22° C | 40% | 1004.4 hPa | - | - | - | - |
| 1777979539 | 17.22° C | 39% | 1004.7 hPa | - | - | - | - |
| 1777979390 | 17.22° C | 39% | 1004.7 hPa | - | - | - | - |
| 1777978490 | 17.22° C | 38% | 1004.7 hPa | - | - | - | - |
| 1777977590 | 17.22° C | 38% | 1004.3 hPa | - | - | - | - |
| 1777976690 | 17.22° C | 38% | 1004 hPa | - | - | - | - |
| 1777975790 | 17.22° C | 38% | 1003.7 hPa | - | - | - | - |
* Rain since midnight (hover to see other rain measurements)
** Current wind speed in m/s (hover to see current wind gust speed)